カタログに戻る

SL-8 R/B

運用中LEO
NORAD 13028·ROCKET BODY·🇷🇺 Russia

打ち上げ Jan 7, 1982 から Plesetsk Cosmodrome

Loading…

次のパス (今後24時間)

TLE

最新Source: Space-Track

元期: Sep 14, 2026, 08:06 UTC

1 13028U 82001B   26257.33789088  .00000148  00000-0  55269-4 0  9997
2 13028  74.0386 284.6788 0020418 254.1618 105.7286 14.39954589342420

AllMySatでSL-8 R/Bをリアルタイム追跡

Download on the App Store